Location: Binningen
(47.7924°N, 8.7261°E)
Time: 07:28:14
(UTC+00:00)

Cosmos 1500 - Pass Details

Date: 17 May 2021
Orbit: 497 x 518 km, 82.5° (Epoch: 20 June)

Event Time Altitude Azimuth Distance (km) Brightness Sun altitude
Rises 19:38:21 0° 349° (N) 2,606 7.6 -6.2°
Reaches altitude 10° 19:40:28 10° 349° (N) 1,715 6.7 -6.5°
Maximum altitude 19:44:13 82° 263° (W) 510 3.2 -7.0°
Drops below altitude 10° 19:47:56 10° 175° (S) 1,695 5.4 -7.5°
Enters shadow 19:49:33 - 175° (S) 2,370 6.1 -7.7°
